User: anonymous   Login
Location: Hodgeman County Ambulance
(38.0844°N, 99.8949°W)
Time: 08:52:48
(UTC+00:00)
Language:

Tiangong - Orbit

View from above orbital plane
View from above orbital plane
View from above satellite
View from above satellite

Ground track
Ground track

The orbit data is extracted from the following two-line orbital elements,

1 48274U 21035A   21295.00751410  .00072904  00000-0  84980-3 0  9997
2 48274  41.4690 229.6566 0006561 233.5988 179.8796 15.60666791 27534
Epoch (UTC): 22 October 2021 00:10:49
Eccentricity: 0.0006561
inclination: 41.4690°
perigee height: 381 km
apogee height: 390 km
right ascension of ascending node: 229.6566°
argument of perigee: 233.5988°
revolutions per day: 15.60666791
mean anomaly at epoch: 179.8796°
orbit number at epoch: 2753

The dashed part of the orbit path shows where the satellite is in the earth's shadow,  

DLR